GSAT0214

Last updated on Thu Dec 15 2016 00:17:11 GMT+0000 (Coordinated Universal Time)

1 41862U 16069D 16347.43528588 .00000084 00000-0 00000-0 0 9999 2 41862 54.5806 197.5995 0003952 11.1011 349.0026 1.70989648 422
UTC large
Height (km)
Speed (km/s)
/
Latitude / Longitude
Inclination (degrees)
Orbital Period (minutes)
Azimuth
Elevation
Range (km)
Doppler Factor

Next 0 passes for location: London (51.5072 / 0.1276)

Sorry there are no passes over London.